Время (UTC), дата Ветер
(°,м/с) 
Видим.   Явления Облачность Т
(°С)
Тd
(°С)
f(%) Тe
(°С)
Pmin
(гПа)
dP
(гПа)
Po
(мм)
O2
(г/м3)
Тmin Tmax R s Состояние
почвы
00 01.09.12 090 (В) >10 км    3/1 1000 м средняя 
[Cu hum|Ac cast]
+18.5 +15.8 84 +29  1018.4  -0.3  757  282           
03 01.09.12 020 (С) >10 км    8/3 1000 м средняя, верхняя 
[Cu hum|Ac trans|Cc]
+23.2 +17.4 70 +36  1017.5  0.8  756  277           
06 01.09.12 180 (Ю) >10 км    6/5 1000 м средняя 
[Cu med, cong|Ac trans]
+25.4 +17.4 61 +38  1015.1  -2.2  755  274           
12 01.09.12 тихо ()   >10 км    9/9 1320 м 
[Sc]
+20.8 +18.9 89 +37  1015.5  755  278           
15 01.09.12 тихо ()   >10 км    9/6 1380 м верхняя 
[Sc|Ci]
+19.6 +18.8 95 +35  1015.6  755  279           
18 01.09.12 тихо ()   >10 км  туман поземный  10/0 средняя, верхняя 
[Ac trans|Cs]
+17.1 +16.4 96 +28  1014.8  -0.8  754  282           
00 02.09.12 180 (Ю) 0500 м  туман  ?/?  
+18.8 +18.3 97 +35  1014.2  -0.3  754  280           
06 02.09.12 250 (З) >10 км  {туман}  9/6 600 м кучево-дожд., средняя, верхняя 
[Cb cap|Ac trans|Cc]
+24.9 +20.8 78 +45  1010.3  -1.9  751  272           
12 02.09.12 090 (В) >10 км    10/6 600 м кучево-дожд., средняя, верхняя 
[Cb cap|Ac lent|Cc]
+21.5 +20.9 96 +42  1010  0.5  751  275           
15 02.09.12 тихо ()   0500 м  туман  10/8 600 м кучево-дожд., средняя 
[Cb cap|Ac trans]
+20.3 +20 98 +39  1010  751  277           
18 02.09.12 110 (В) 10 км  в посл. час туман  10/10 210 м 
[St]
+17.1 +16.3 95 +28  1010.9  0.7  751  281           
21 02.09.12 160 (Ю) >10 км    10/10 270 м 
[St]
+12.9 +12 94 +16  1014.1  3.1  754  288  +12.8        влажная 
00 03.09.12 110 (В) >10 км    10/10 660 м 
[St]
+12.3 +10.6 89 +14  1014.3  0.1  754  289  +12.2         
06 03.09.12 050 (СВ) >10 км  {дождь}  10/10 900 м 
[Sc]
+12.6 +10.5 87 +15  1016.9  -0.1  756  289           
12 03.09.12 090 (В) >10 км    10/9 600 м средняя 
[St|As op]
+11.9 +9.5 85 +12  1019.3  1.4  758  291           
15 03.09.12 090 (В) >10 км    10/10 570 м 
[Ns]
+11.7 +9.5 86 +12  1019.4  0.1  758  291           
18 03.09.12 090 (В) 10 км  слаб. дождь  10/10 800 м 
[Ns]
+11.8 +10.4 91 +13  1019  -0.4  757  291           
21 03.09.12 090 (В) 10 км  слаб. дождь  10/10 900 м 
[Frnb|Ns]
+11.1 +10.3 95 +13  1018.5  -0.5  757  291  +11      влажная 
00 04.09.12 090 (В) 2000 м  дождь{ливн. осадки}  10/10 300 м кучево-дожд. 
[Cb cap|Ns]
+11 +10.8 99 +14  1018.6  -0.1  757  291  +10.5         
03 04.09.12 090 (В) 2000 м  морось{дождь}  10/10 300 м 
[St]
+11 +10.8 99 +13  1018.1  -0.5  756  291           
06 04.09.12 050 (СВ) 2000 м  дождь{морось}  10/10 300 м 
[Frnb|Ns]
+12 +11.8 99 +15  1016.2  -1.7  755  289           
12 04.09.12 020 (С) 2000 м  слаб. морось{дождь}  10/10 270 м 
[St]
+12.6 +12.4 99 +18  1016.2  0.2  755  288           
18 04.09.12 050 (СВ) 2000 м  морось  10/10 210 м 
[St]
+13.7 +13.5 99 +21  1014.1  -1  754  286           
21 04.09.12 070 (В) 2000 м  слаб. морось  10/10 210 м 
[St]
+14.1 +14.1 100 +22  1012.8  -1.3  753  285  +12.4    11    влажная 
00 05.09.12 050 (СВ) 2000 м  слаб. морось{дождь}  10/10 180 м 
[St]
+14.8 +14.8 100 +24  1011.6  -1.2  752  284           
06 05.09.12 250 (З) 2000 м  слаб. дождь{ливн. осадки}  10/10 180 м 
[Sc|Ns]
+16.2 +15.9 98 +28  1009.5  -0.6  752  283           
12 05.09.12 230 (ЮЗ) >10 км  {дождь, морось}  4/0 средняя 
[Ac lent]
+15 +14.7 98 +24  1011.7  1.2  752  284           
15 05.09.12 тихо ()   >10 км    4/0 средняя, верхняя 
[Ac lent|Cc]
+13.1 +12.5 96 +18  1011.9  0.2  752  287           
18 05.09.12 250 (З) >10 км    ясно 
+11 +10.4 96 +14  1011.9  -0.2  752  289           
21 05.09.12 290 (З) >10 км  местами туман поземный  8/0 средняя, верхняя 
[Ac lent|Cc]
+9.1 +9.1 100 +10  1012.7  0.8  752  292  +9        влажная 
00 06.09.12 200 (Ю) >10 км    3/1 1000 м верхняя 
[Cu hum|Cc]
+14.8 +12.6 87 +20  1012.2  -0.3  752  285           
03 06.09.12 290 (З) >10 км    4/4 600 м кучево-дожд. 
[Cb cap]
+18.3 +12 67 +23  1011.1  -1  752  282           
06 06.09.12 230 (ЮЗ) >10 км    3/3 600 м кучево-дожд. 
[Cb cap]
+20.8 +11.7 56 +24  1009.1  -2  750  279           
12 06.09.12 320 (СЗ) >10 км  зарница{гроза, ливн. осадки}  10/8 600 м кучево-дожд., средняя 
[Cb cap|Ac cuf]
+12.2 +11.6 96 +16  1011.4  0.6  752  288           
15 06.09.12 050 (СВ) >10 км  {ливн. осадки}  10/6 600 м кучево-дожд., средняя 
[Cb cap|As trans]
+11.1 +11.1 100 +15  1011.2  -0.2  752  289           
18 06.09.12 250 (З) 0500 м  туман{ливн. осадки}  ?/?  
[]
+11 +11 100 +14  1012.7  1.3  752  289           
21 06.09.12 тихо ()   10 км  туман поземный  1/0 верхняя 
[Cc]
+7.8 +7.8 100 +8  1014.5  1.7  754  294  +7.6      влажная 
00 07.09.12 270 (З) >10 км  {туман}  3/1 600 м верхняя 
[Cu med, cong|Ci fib]
+14.7 +11.3 80 +18  1015.6  1.3  755  286           
03 07.09.12 290 (З) >10 км    3/3 1000 м 
[Cu med, cong]
+19.2 +11.6 61 +23  1015.8  0.4  755  282           
06 07.09.12 290 (З) >10 км    1/1 600 м кучево-дожд. 
[Cb cap]
+21.9 +11.5 52 +25  1015.3  -0.4  755  279           
12 07.09.12 250 (З) >10 км    ясно 
+14.4 +13.3 93 +21  1016.9  756  287           
15 07.09.12 200 (Ю) >10 км    ясно 
+13.4 +12.1 92 +19  1017.7  0.8  756  288           
18 07.09.12 200 (Ю) >10 км    ясно 
+11.2 +10.8 97 +14  1018.3  0.6  757  291           
21 07.09.12 тихо ()   >10 км  туман поземный  3/0 средняя 
[Ac trans]
+9.4 +9.2 99 +9  1019  0.5  757  293  +9.3        влажная 
00 08.09.12 360 (С) >10 км    3/0 верхняя 
[Ci fib]
+16.1 +13.1 82 +22  1019.7  1.1  758  286  +9.1         
03 08.09.12 340 (С) >10 км    8/0 средняя, верхняя 
[Ac lent|Cc]
+23.8 +15.3 59 +33  1018.7  -0.9  757  278           
06 08.09.12 250 (З) >10 км    8/1 1000 м средняя, верхняя 
[Cu med, cong|Ac lent|Cc]
+25.6 +14.2 49 +33  1017.7  -1  757  276           
09 08.09.12 230 (ЮЗ) >10 км    10/0 средняя, верхняя 
[Ac As|Cc]
+22 +16.4 71 +33  1017.8  0.1  757  279    +26       
12 08.09.12 290 (З) >10 км    10/0 средняя 
[Ac As]
+16.3 +15.3 94 +27  1018.1  0.2  757  284           
15 08.09.12 тихо ()   >10 км    10/0 средняя 
[As trans]
+14.2 +13.3 94 +20  1017.8  -0.5  756  287           
18 08.09.12 тихо ()   >10 км    10/0 средняя 
[As trans]
+13.2 +12.7 97 +18  1017.2  -0.6  756  288           
00 09.09.12 290 (З) >10 км  в посл. час ливневой дождь  10/8 600 м кучево-дожд., средняя 
[Cb cap|Ac As]
+16.7 +15.3 91 +27  1016  -0.9  755  284           
03 09.09.12 050 (СВ) >10 км    10/4 600 м кучево-дожд., средняя 
[Cb cap|Ac As]
+18.7 +16.9 89 +32  1013.6  -2.4  753  280           
06 09.09.12 140 (ЮВ) >10 км  слаб. ливневой дождь  10/8 600 м кучево-дожд., средняя 
[Cb cap|Ac As]
+20.4 +17 81 +33  1012.3  -1.1  753  278           
12 09.09.12 тихо ()   >10 км  {ливн. осадки, дождь}  10/6 1000 м средняя 
[Sc|Ac trans]
+16.6 +15.4 93 +26  1012.9  0.3  753  283           
18 09.09.12 тихо ()   >10 км  {дождь}  9/5 1000 м средняя, верхняя 
[Sc|Ac As|Ci fib]
+14.8 +14.4 97 +22  1012.3  -0.4  752  285           
00 10.09.12 360 (С) >10 км    1/0 средняя 
[Ac lent]
+17.8 +14.5 81 +27  1012.3  -0.2  752  282           
03 10.09.12 250 (З) >10 км    3/3 600 м кучево-дожд. 
[Cb cap]
+23.4 +13.9 55 +30  1011.7  -0.4  752  276           
06 10.09.12 290 (З) >10 км    5/5 600 м кучево-дожд. 
[Cb cap]
+24.8 +13.6 50 +31  1011  -0.7  752  275           
12 10.09.12 250 (З) >10 км    ясно 
+16.5 +13.1 80 +23  1012.9  1.4  753  283           
15 10.09.12 тихо ()   >10 км    ясно 
+13.4 +12.7 96 +18  1013.8  0.8  753  287           
18 10.09.12 тихо ()   >10 км  туман поземный  ясно 
+11.5 +11.1 97 +14  1014.1  0.3  754  289           
00 11.09.12 340 (С) >10 км    3/0 верхняя 
[Ci]
+17.2 +13.3 78 +25  1014.8  0.2  754  283           
03 11.09.12 230 (ЮЗ) >10 км    4/1 1000 м средняя, верхняя 
[Cu hum|Ac lent|Ci]
+22.2 +11.3 50 +25  1014.5  -0.5  754  279           
06 11.09.12 330 (СЗ) >10 км    10/4 600 м кучево-дожд., средняя 
[Cb cap|Ac lent]
+21.7 +11.7 53 +25  1013.4  -0.7  753  279           
09 11.09.12 250 (З) >10 км    10/4 600 м кучево-дожд., средняя 
[Cb cap|Ac lent]
+18.8 +12.8 68 +25  1013.5  -0.1  753  281    +23.4       
12 11.09.12 250 (З) >10 км    10/0 средняя 
[Ac lent]
+15.6 +13.8 89 +24  1013.8  0.2  753  284           
15 11.09.12 360 (С) >10 км    6/0 средняя 
[Ac As]
+13.1 +11.8 92 +18  1013.8  753  287           
18 11.09.12 610 () >10 км    4/0 
+11.2 +10 92 +13  1013.7  -0.1  753  290           
00 12.09.12 070 (В) >10 км    10/0 средняя, верхняя 
[Ac lent|Cc]
+14 +12.3 89 +19  1013.3  -0.3  753  286           
03 12.09.12 360 (С) >10 км    10/3 600 м кучево-дожд., средняя 
[Cb cap|Ac As]
+18.8 +12.2 65 +24  1011.6  -1.6  752  281           
06 12.09.12 090 (В) >10 км    10/3 600 м кучево-дожд., средняя 
[Cb cap|Ac As]
+19.8 +13.1 65 +27  1010.4  -1.2  751  280           
12 12.09.12 090 (В) >10 км    10/9 1350 м средняя 
[Sc|Ac As]
+15.1 +13.9 93 +23  1009.9  -0.2  750  284           
18 12.09.12 110 (В) >10 км  {гроза, ливн. осадки}  10/10 500 м 
[St]
+15 +14.3 96 +24  1007.4  -1.1  749  283           
21 12.09.12 140 (ЮВ) 10 км    10/10 300 м 
[Frnb|Ns]
+15.1 +13.7 91 +23  1006.6  -0.8  748  283  +14.9      влажная 
00 13.09.12 140 (ЮВ) 2000 м  в посл. час морось{дождь}  10/10 200 м верхняя 
[Frnb|Cs]
+16 +15.5 97 +27  1007.4  0.9  749  282           
03 13.09.12 тихо ()   >10 км    9/9 720 м кучево-дожд., верхняя 
[Cb cap|Cc]
+20.1 +16.5 80 +32  1006.6  -0.8  748  277           
06 13.09.12 200 (Ю) >10 км    10/8 600 м кучево-дожд., средняя 
[Cb cap|As trans]
+20.8 +15.4 71 +30  1006.4  748  277           
12 13.09.12 270 (З) 1000 м  ливневой дождь  10/10 600 м кучево-дожд. 
[Cb cap]
+15.4 +14.7 96 +23  1007.3  0.6  749  282           
18 13.09.12 270 (З) 10 км  {ливн. осадки, дождь}  8/8 1350 м средняя 
[St|Ac und]
+12.6 +11.9 96 +16  1006.4  -0.1  748  286           
00 14.09.12 250 (З) >10 км    9/1 300 м средняя 
[St|Ac As]
+14.2 +10.6 79 +16  1008.9  0.9  750  285  +10.3         
03 14.09.12 270 (З) >10 км    9/9 600 м кучево-дожд. 
[Cb cap]
+15.6 +10.3 71 +17  1009.8  0.9  750  284           
06 14.09.12 320 (СЗ) 5-10  >10 км    9/8 600 м кучево-дожд., средняя 
[Cb cap|Ac trans]
+16.6 +9.8 64 +17  1010.1  0.4  751  283           
12 14.09.12 250 (З) >10 км    4/0 средняя 
[Ac lent]
+11.2 +9.6 90 +12  1013.7  2.4  753  290           
15 14.09.12 тихо ()   >10 км    ясно 
+8.1 +6.8 91 +8  1015.5  1.5  755  294           
18 14.09.12 290 (З) >10 км    ясно 
+7.1 +6.2 94 +8  1016.5  755  296           
21 14.09.12 110 (В) >10 км  туман поземный  8/0 средняя, верхняя 
[Ac lent|Cc]
+7.4 +7 97 +8  1018.5  757  296  +7.3        влажная 
00 15.09.12 230 (ЮЗ) >10 км    9/0 средняя, верхняя 
[Ac lent|Cc]
+13.2 +10.1 81 +15  1020.2  1.9  758  290           
03 15.09.12 360 (С) >10 км    9/0 средняя, верхняя 
[Ac trans|Cc]
+19 +5 40 +20  1020.4  0.4  758  285           
06 15.09.12 340 (С) >10 км    8/0 средняя, верхняя 
[Ac lent|Ci]
+21 +2.1 29 +21  1020.5  0.1  759  284           
12 15.09.12 340 (С) >10 км    ясно 
+10 +7.7 86 +11  1022.9  1.9  760  294           
15 15.09.12 320 (СЗ) >10 км    ясно 
+7.8 +6.7 93 +9  1023.9  761  297           
18 15.09.12 320 (СЗ) >10 км    ясно 
+7 +6.3 95 +8  1024.1  0.2  761  298           
00 16.09.12 020 (С) >10 км    ясно 
+12.9 +7.8 71 +14  1024.4  761  292  +4.4         
03 16.09.12 320 (СЗ) >10 км    ясно 
+20.6 +10.3 52 +22  1023  -1.1  760  283           
06 16.09.12 230 (ЮЗ) >10 км    1/0 средняя 
[Ac lent]
+23.8 +10 42 +25  1021.4  -1.5  759  280           
12 16.09.12 270 (З) >10 км    ясно 
+11.8 +9.8 87 +14  1021.8  0.6  759  292           
15 16.09.12 360 (С) >10 км    3/0 верхняя 
[Cs]
+9.5 +8.9 96 +11  1021.8  -0.2  759  294           
18 16.09.12 360 (С) >10 км    3/0 верхняя 
[Cs]
+9.1 +8.3 95 +10  1021.7  -0.1  759  295           
00 17.09.12 360 (С) >10 км    10/0 верхняя 
[Cs]
+13 +9.1 77 +14  1019.9  -1.1  758  290  +8.1         
03 17.09.12 070 (В) >10 км    10/0 средняя 
[Ac As]
+18.4 +10.2 59 +20  1017.9  -1.8  757  284           
06 17.09.12 070 (В) >10 км    10/0 средняя, верхняя 
[Ac As|Cc]
+21 +11.5 55 +24  1016.1  -1.7  755  280           
12 17.09.12 070 (В) >10 км    6/0 средняя, верхняя 
[Ac lent|Ci fib]
+13 +11.7 92 +17  1015.2  754  288           
15 17.09.12 360 (С) >10 км    8/0 средняя, верхняя 
[Ac lent|Ci fib]
+12 +10.9 93 +15  1015  -0.2  754  289           
18 17.09.12 050 (СВ) >10 км    10/0 средняя 
[Ac As]
+11.1 +10.3 95 +13  1012.9  -2  753  290           
00 18.09.12 050 (СВ) >10 км  слаб. ливневой дождь  10/8 600 м кучево-дожд., средняя 
[Cb cap|Ac lent]
+14.2 +11.4 83 +17  1009.3  -0.8  750  285           
03 18.09.12 070 (В) 4000 м  дождь{ливн. осадки}  10/10 300 м 
[Frnb|Ns]
+12.9 +11.6 92 +15  1006.3  -3  748  286           
06 18.09.12 360 (С) 5-10{12}  2000 м  дождь{ливн. осадки}  10/10 300 м 
[Frnb|Ns]
+12.6 +12 96 +16  1002.7  -3.5  745  285           
09 18.09.12 070 (В) 4{10}  2000 м  слаб. дождь  10/10 270 м 
[Frnb|Ns]
+12.3 +12.1 99 +16  1001.9  -0.8  745  285    +14.7  25     
12 18.09.12 070 (В) 2000 м  дождь  10/9 300 м средняя 
[Sc|As op]
+11.9 +11.7 99 +16  1002.3  0.4  745  285           
15 18.09.12 050 (СВ) 2000 м  дождь  10/10 300 м 
[Frnb|Ns]
+12.2 +12.2 100 +17  1001.6  -0.7  744  285           
18 18.09.12 360 (С) 4000 м  слаб. дождь  10/10 360 м 
[Frnb|Ns]
+11.6 +11.4 99 +14  1000.7  -0.9  744  285           
21 18.09.12 360 (С) 2000 м  морось{дождь}  10/10 240 м 
[Frnb]
+11.9 +11.7 99 +16  1000.8  0.1  744  285  +11.5    25    мокрая 
00 19.09.12 070 (В) 2000 м  морось{дождь}  10/10 200 м 
[St]
+13.1 +12.9 99 +19  1001.3  0.5  744  284           
03 19.09.12 290 (З) 2000 м  морось  10/10 200 м 
[St]
+14.4 +13.7 96 +22  1001.6  0.3  744  282           
06 19.09.12 тихо ()   >10 км  в посл. час ливневой дождь{морось}  10/10 600 м кучево-дожд. 
[Cb cap]
+15.7 +14.1 90 +23  1001.4  -0.2  744  281           
12 19.09.12 230 (ЮЗ) >10 км  {ливн. осадки}  3/3 300 м 
[St]
+13.4 +12.7 96 +19  1003.7  1.4  746  284           
15 19.09.12 270 (З) >10 км    ясно 
+11.8 +10.2 90 +14  1005  747  287           
18 19.09.12 290 (З) >10 км    ясно 
+11.3 +9.5 89 +11  1005.7  0.9  747  287           
00 20.09.12 140 (ЮВ) >10 км    ясно 
+12.6 +10.1 85 +15  1007.1  0.4  748  286  +7.4         
03 20.09.12 230 (ЮЗ) >10 км    8/4 600 м кучево-дожд., средняя, верхняя 
[Cb cap|Ac cast|Ci fib]
+19.7 +11.6 59 +23  1005.8  -1.2  748  279           
06 20.09.12 270 (З) >10 км    6/6 600 м кучево-дожд. 
[Cb cap]
+21.2 +12 56 +25  1005.1  -0.5  747  277           
12 20.09.12 270 (З) >10 км  зарница{гроза, ливн. осадки}  3/3 600 м кучево-дожд. 
[Cb cap]
+13.2 +8.6 74 +13  1008.1  2.5  749  286           
15 20.09.12 270 (З) >10 км    ясно 
+10.1 +6.9 80 +10  1009.9  1.6  750  290           
18 20.09.12 090 (В) >10 км    ясно 
+8 +6.9 93 +9  1011.2  1.3  751  293           
00 21.09.12 050 (СВ) >10 км    4/0 средняя, верхняя 
[Ac lent|Cc]
+12.3 +8.5 78 +14  1013  0.9  753  289           
03 21.09.12 230 (ЮЗ) >10 км    1/0 средняя 
[Ac cast]
+18.6 +10.2 58 +21  1012.2  -0.7  752  282           
06 21.09.12 140 (ЮВ) >10 км    1/0 средняя 
[Ac cast]
+21 +9.2 47 +21  1010.9  -1.3  751  280           
12 21.09.12 360 (С) >10 км    9/9 1000 м 
[Sc]
+13.2 +11.7 91 +17  1012.2  0.6  752  287           
15 21.09.12 180 (Ю) 10 км  гроза, ливневой дождь  10/10 600 м кучево-дожд. 
[Cb cap]
+14 +13.3 96 +21  1013.5  1.3  753  286           
18 21.09.12 тихо ()   >10 км  {гроза, ливн. осадки}  1/1 1000 м 
[Sc]
+11.8 +11.4 97 +15  1013  -0.5  753  289           
21 21.09.12 050 (СВ) >10 км    10/10 450 м 
[St]
+11.2 +11 99 +14  1014.1  1.1  754  290  +10.9    12    мокрая 
00 22.09.12 050 (СВ) >10 км    3/3 600 м 
[Sc]
+13.3 +11.2 87 +18  1015.3  1.1  755  288           
03 22.09.12 320 (СЗ) >10 км    9/8 1000 м верхняя 
[Sc|Ci fib]
+17 +11.5 70 +21  1015.1  755  284           
06 22.09.12 160 (Ю) >10 км    5/3 600 м кучево-дожд., верхняя 
[Cb cap|Cs]
+19.2 +10.5 57 +23  1014.3  -0.8  754  282           
12 22.09.12 110 (В) >10 км    9/9 1140 м 
[Sc]
+11.8 +11.4 97 +16  1016.6  1.6  755  290           
15 22.09.12 110 (В) >10 км    3/1 300 м верхняя 
[St|Cc]
+10.8 +9.6 92 +11  1018  1.2  756  291           
18 22.09.12 110 (В) 4000 м    9/0 средняя 
[Ac cast]
+9.2 +8 92 +10  1018.2  0.2  757  294           
00 23.09.12 110 (В) >10 км    10/0 средняя 
[Ac As]
+11.7 +6.2 69 +11  1017.5  -0.2  756  291           
03 23.09.12 090 (В) 10 км  слаб. дождь  10/8 300 м средняя 
[Frnb|Ac As]
+9.4 +7.5 88 +9  1017.3  -0.4  756  293           
09 23.09.12 050 (СВ) >10 км  {дождь}  10/10 960 м кучево-дожд. 
[Cb cap]
+9.7 +8.3 91 +10  1016.4  0.1  755  292    +11.8     
21 23.09.12 360 (С) 10 км  дождь  10/10 200 м 
[Frnb|Ns]
+8.2 +8 99 +8  1017.1  0.6  756  294  +7.7    19    мокрая 
00 24.09.12 360 (С) 10 км  слаб. дождь  10/10 300 м кучево-дожд. 
[Cb cap|Ac As]
+8.7 +8.3 97 +9  1017.8  0.7  756  294           
03 24.09.12 360 (С) 4000 м  слаб. дождь  10/4 300 м средняя 
[St|Ac As]
+9.6 +9 96 +10  1017.9  0.1  756  293           
06 24.09.12 360 (С) 10 км  слаб. ливневой дождь  10/8 600 м кучево-дожд., средняя 
[Cb cap|Ac As]
+9.5 +8.9 96 +11  1018.1  0.2  756  293           
12 24.09.12 180 (Ю) >10 км  в посл. час ливневой дождь  10/10 600 м кучево-дожд. 
[Cb cap]
+10 +9.6 97 +11  1019.8  0.8  758  293           
18 24.09.12 070 (В) 0500 м  туман  ясно 
+8.2 +8.2 100 +9  1021.3  0.3  759  295           
00 25.09.12 050 (СВ) >10 км  {туман}  5/1 300 м средняя, верхняя 
[St|Ac lent|Cc]
+9.8 +9 95 +11  1024.1  1.1  761  294           
03 25.09.12 360 (С) >10 км    9/9 540 м кучево-дожд. 
[Cb cap]
+12.4 +9.7 84 +15  1023.9  761  292           
06 25.09.12 090 (В) >10 км    9/9 960 м 
[Sc]
+12.8 +9.3 79 +13  1023.8  -0.1  761  291           
12 25.09.12 тихо ()   >10 км  туман поземный  ясно 
+7.1 +6.9 99 +7  1024.4  0.7  761  298           
15 25.09.12 тихо ()   >10 км  туман поземный  3/0 средняя, верхняя 
[Ac lent|Cc]
+4.6 +4.6 100 +5  1024  -0.5  761  301           
18 25.09.12 070 (В) 0500 м  туман  ясно 
+6.6 +6.6 100 +8  1023.5  -0.4  761  298           
00 26.09.12 110 (В) 1000 м  дымка{туман}  10/10 180 м 
[St]
-8.9 +8.7 100 -9  1022.8  -0.6  760  315           
06 26.09.12 110 (В) 10 км  слаб. дождь{морось}  10/10 300 м 
[Frnb|Ns]
+11 +10.4 96 +12  1020.8  -0.7  758  292           
09 26.09.12 180 (Ю) 2000 м  слаб. морось{дождь}  10/10 100 м верхняя 
[Frnb|Cs]
+10.8 +10.8 100 +14  1020.8  758  292         
12 26.09.12 320 (СЗ) 2000 м  дымка{дождь, морось}  10/10 150 м 
[St]
+10.8 +10.6 99 +14  1021.7  0.9  759  292           
15 26.09.12 050 (СВ) 10 км    10/10 150 м 
[St]
+10 +9.4 96 +11  1022.1  0.4  759  294           
18 26.09.12 тихо ()   0500 м  туман  10/10 300 м 
[St]
+10 +10 100 +11  1022.8  0.7  760  294           
21 26.09.12 270 (З) >10 км  туман  10/10 300 м 
[St]
+8 +8 100 +9  1023.8  761  296  +7.9    0.0    влажная 
00 27.09.12 340 (С) 4000 м  дымка{туман}  10/10 210 м 
[St]
+9.2 +8.8 97 +10  1024.2  0.4  761  295           
03 27.09.12 140 (ЮВ) 10 км    10/10 420 м 
[St]
+11.3 +9.9 91 +13  1023.8  -0.2  761  293           
06 27.09.12 180 (Ю) >10 км    10/3 300 м верхняя 
[St|Cs]
+14.3 +11.1 81 +17  1022.5  -1.3  760  289           
12 27.09.12 тихо ()   10 км  в посл. час ливневой дождь  9/4 600 м кучево-дожд., средняя, верхняя 
[Cb cap|Ac trans|Ci fib]
+11.1 +10.5 96 +13  1022  760  292           
15 27.09.12 090 (В) 10 км  туман поземный  10/0 средняя 
[As trans]
+10.2 +9.8 97 +12  1021.4  -0.8  759  293           
18 27.09.12 050 (СВ) 10 км    10/10 210 м 
[St]
+10.2 +10.2 100 +12  1020.4  -1  758  293           
21 27.09.12 050 (СВ) 10 км    10/9 1410 м средняя 
[St|Ac As]
+8.9 +8.7 99 +10  1020.2  -0.2  758  294  +8.7    0.4    влажная 
00 28.09.12 050 (СВ) 4000 м  слаб. ливневой дождь  10/10 1350 м кучево-дожд. 
[Cb cap]
+9.7 +9.3 97 +11  1020.2  758  293           
06 28.09.12 090 (В) 4000 м  слаб. морось{ливн. осадки, дождь}  10/10 300 м 
[St]
+11.3 +10.7 96 +14  1017.1  -1.7  756  290           
09 28.09.12 050 (СВ) 4000 м  слаб. дождь{морось}  10/10 800 м 
[Frnb|Ns]
+10.6 +10.4 99 +13  1017.2  -0.1  756  291    +12     
12 28.09.12 360 (С) 10 км  {дождь, морось}  10/10 800 м 
[Sc]
+10.7 +10.3 97 +13  1017.2  756  291           
15 28.09.12 050 (СВ) >10 км    10/10 900 м 
[Sc]
+10.6 +9.8 95 +13  1016.8  -0.4  755  291           
18 28.09.12 020 (С) >10 км    10/10 1110 м 
[Sc]
+10.4 +9.4 93 +12  1016.2  -0.6  755  291           
00 29.09.12 050 (СВ) >10 км  в посл. час дождь  10/8 870 м средняя 
[Sc|As op]
+11 +9 87 +12  1016.5  0.2  755  291           
03 29.09.12 070 (В) >10 км    10/8 600 м кучево-дожд., средняя 
[Cb cap|Ac lent]
+14 +8.9 71 +14  1015.4  -0.9  755  288           
06 29.09.12 090 (В) >10 км    9/4 1000 м средняя, верхняя 
[Cu hum|Ac cuf|Cc]
+16.8 +8.2 57 +17  1012.2  -3  752  284           
12 29.09.12 050 (СВ) >10 км    10/0 средняя, верхняя 
[Ac lent|Cc]
+10.1 +6.5 78 +11  1011.6  -0.6  752  291           
15 29.09.12 050 (СВ) >10 км    10/0 средняя 
[Ac und]
+9.5 +6.7 83 +10  1011  -0.6  751  291           
18 29.09.12 360 (С) >10 км    10/0 средняя 
[Ac und]
+9 +6.9 87 +9  1010.3  -0.7  751  292           
21 29.09.12 050 (СВ) >10 км    10/10 1000 м 
[Sc]
+11.3 +4.7 64 +12  1010.9  0.6  751  290  +8.9        влажная 
00 30.09.12 020 (С) >10 км    10/8 1050 м средняя 
[Sc|Ac lent]
+11.4 +7.9 79 +12  1011.5  0.8  752  289           
03 30.09.12 070 (В) >10 км    9/9 1140 м 
[Sc]
+13.5 +7.6 67 +14  1011.3  -0.2  752  287           
06 30.09.12 340 (С) >10 км    1/1 1000 м 
[Cu hum]
+17.4 +8.9 57 +19  1010.3  -0.9  751  283           
12 30.09.12 тихо ()   >10 км    1/0 средняя 
[Ac lent]
+9.7 +8.7 94 +10  1012.4  752  291           
15 30.09.12 тихо ()   >10 км    ясно 2000 м 
+8 +7.1 94 +8  1013  0.6  753  293           
18 30.09.12 360 (С) >10 км    ясно 
+5.8 +4.9 94 +7  1013  -0.1  753  296           
00 01.10.12 360 (С) >10 км    ясно 
+8.7 +3.6 70 +10  1014.9  0.8  754  294  +2         
03 01.10.12 290 (З) >10 км    ясно 
+14.7 +6.2 57 +16  1013.7  -0.9  753  287           
06 01.10.12 160 (Ю) >10 км    1/0 верхняя 
[Ci]
+19 +2.6 34 +21  1012.7  -0.9  753  283           
12 01.10.12 тихо ()   >10 км    4/0 верхняя 
[Cs]
+7 +5.4 90 +7  1014.6  0.9  754  295           
15 01.10.12 тихо ()   >10 км    10/0 верхняя 
[Cs]
+5.2 +4.7 97 +5  1015.8  1.1  755  298           
18 01.10.12 тихо ()   >10 км  туман поземный  3/0 верхняя 
[Ci fib]
+3.7 +3.2 96 +4  1016.3  0.5  755  300           
21 01.10.12 340 (С) >10 км  местами туман поземный  1/0 верхняя 
[Ci fib]
+2.7 +2.4 98 +3  1017.1  0.8  756  301  +2.5        влажная 
00 02.10.12 360 (С) >10 км    ясно 
+9.8 +5.2 73 +11  1018  756  293  +2         
03 02.10.12 230 (ЮЗ) >10 км    ясно 
+20 +6 40 +20  1017.1  -0.5  756  283           
06 02.10.12 200 (Ю) >10 км    1/1 1000 м 
[Cu med, cong]
+22.2 +5.8 34 +22  1015.8  -1.2  755  280           
12 02.10.12 340 (С) >10 км    3/0 верхняя 
[Ci fib]
+9.2 +6.4 83 +10  1017.2  0.9  756  294           
15 02.10.12 тихо ()   >10 км    3/0 верхняя 
[Ci fib]
+5.9 +4.7 92 +6  1017.3  756  297           
18 02.10.12 250 (З) >10 км    4/0 верхняя 
[Ci]
+4.4 +3.9 97 +5  1017.3  756  299           
00 03.10.12 050 (СВ) >10 км    3/0 верхняя 
[Ci fib]
+9 +5.5 79 +10  1017.6  0.2  756  294           
03 03.10.12 180 (Ю) >10 км    1/0 средняя 
[Ac trans]
+18.4 +5.8 44 +20  1015.8  -1.4  755  284           
06 03.10.12 180 (Ю) >10 км    4/1 600 м кучево-дожд., средняя, верхняя 
[Cb cap|Ac cuf|Ci fib]
+19.7 +5.5 39 +21  1014.2  -1.6  754  282           
12 03.10.12 тихо ()   >10 км    9/0 средняя, верхняя 
[Ac lent|Ci]
+9.3 +7.2 87 +9  1014.7  0.4  754  293           
15 03.10.12 360 (С) >10 км    9/0 средняя, верхняя 
[Ac lent|Ci]
+7.5 +6 90 +8  1014  -0.6  753  294           
18 03.10.12 360 (С) >10 км    8/0 средняя, верхняя 
[Ac lent|Ci fib]
+5.7 +4.5 92 +7  1013.7  -0.4  753  297           
21 03.10.12 тихо ()   >10 км  местами туман поземный  3/0 средняя, верхняя 
[Ac lent|Ci fib]
+3.9 +3.7 99 +4  1013.9  0.2  753  299  +3.3        влажная 
00 04.10.12 110 (В) >10 км    10/0 средняя, верхняя 
[Ac trans|Cs]
+10.1 +6.7 79 +10  1013.7  -0.1  753  292           
03 04.10.12 110 (В) >10 км    10/0 средняя, верхняя 
[Ac trans|Cc]
+17 +7.2 52 +18  1011.8  -1.6  752  284           
06 04.10.12 160 (Ю) >10 км    10/8 600 м кучево-дожд., средняя 
[Cb cap|Ac As]
+18.4 +5.8 44 +19  1009.8  -2  751  282           
09 04.10.12 110 (В) >10 км    10/6 600 м кучево-дожд., средняя 
[Cb cap|Ac lent]
+14.6 +6.6 59 +16  1009.1  -0.8  750  286    +19.5       
12 04.10.12 тихо ()   >10 км    10/6 600 м кучево-дожд., средняя, верхняя 
[Cb cap|Ac lent|Ci fib]
+11.2 +4.8 65 +11  1008.8  -0.5  750  289           
15 04.10.12 180 (Ю) >10 км  гроза без осадков  10/10 600 м 
+10 +5.2 72 +11  1008.8  750  291           
18 04.10.12 250 (З) 4900 м  {гроза}  10/6 600 м кучево-дожд., средняя 
[Cb cap|Ac trans]
+8.9 +5.4 79 +10  1007.9  -0.9  749  291           
21 04.10.12 110 (В) >10 км  туман поземный  3/0 средняя 
[Ac lent]
+6.8 +6.4 97 +8  1008.1  0.2  749  293  +6.7    0.0    влажная 
00 05.10.12 250 (З) 10 км  {туман}  8/8 600 м кучево-дожд., верхняя 
[Cb cap|Cc]
+11.6 +9.2 85 +12  1008.8  0.9  750  288  +5.5         
03 05.10.12 250 (З) >10 км  слаб. ливневой дождь  10/8 600 м кучево-дожд., средняя 
[Cb cap|Ac As]
+13.2 +8 71 +13  1008.7  -0.1  750  287           
06 05.10.12 270 (З) >10 км  {ливн. осадки}  10/8 600 м кучево-дожд., средняя 
[Cb cap|Ac As]
+13.6 +8.6 72 +14  1008.5  -0.2  749  286           
12 05.10.12 250 (З) 4000 м  дымка{ливн. осадки}  10/0 средняя 
[Ac As]
+10.4 +9.8 96 +13  1010  0.6  750  290           
15 05.10.12 020 (С) 10 км  в посл. час ливневой дождь  9/0 кучево-дожд., средняя 
[Cb cap|Ac As]
+9.9 +9.5 97 +11  1010.6  0.6  751  290           
18 05.10.12 090 (В) 10 км  {ливн. осадки}  9/0 средняя 
[Ac trans]
+7.8 +7.6 99 +9  1011.6  757  295           
00 06.10.12 230 (ЮЗ) >10 км    3/0 средняя 
[St|Ac lent]
+11.4 +7 74 +11  1013.8  1.1  753  290           
03 06.10.12 320 (СЗ) >10 км    3/0 средняя 
[Ac lent]
+12.2 +2.3 51 +12  1014.5  0.6  754  290           
06 06.10.12 340 (С) 3{10}  >10 км    3/0 средняя 
[Ac trans]
+13.6 -1.8 34 +14  1014.6  0.1  754  290           
12 06.10.12 320 (СЗ) 1{10}  >10 км    ясно 
+6.4 -2.7 52 +7  1018.8  1.8  757  298           
15 06.10.12 290 (З) >10 км    ясно 
+4.5 -4 54 +5  1019.9  1.1  758  301           
18 06.10.12 250 (З) >10 км    ясно 
+0 -3 80 +1  1021.1  758  306           
00 07.10.12 340 (С) >10 км    ясно 
+8.2 -4.9 39 +8  1022  0.5  759  298           
03 07.10.12 320 (СЗ) 4-11{11}  >10 км    ясно 
+11.3 -5.8 30 +11  1021.4  -0.6  759  294           
06 07.10.12 320 (СЗ) >10 км    1/0 верхняя 
[Ci fib]
+12.4 -7.9 23 +12  1020.2  -1  758  293           
12 07.10.12 360 (С) >10 км    ясно 
+3.9 -9.9 36 +3  1023  760  303           
15 07.10.12 тихо ()   >10 км    ясно 
+1.1 -8.2 50 +1  1023.6  0.4  760  306           
18 07.10.12 250 (З) >10 км    ясно 
-1.8 -8.3 61 -1  1023.6  760  309           
00 08.10.12 тихо ()   >10 км    1/0 верхняя 
[Ci fib]
+2.8 -5.2 56 +3  1023.1  760  304  -5.1         
03 08.10.12 250 (З) >10 км    6/0 верхняя 
[Cs]
+9.6 -6.8 31 +11  1021.6  -1.4  759  296           
06 08.10.12 230 (ЮЗ) >10 км    10/0 средняя, верхняя 
[As trans|Cs]
+13 -6.5 25 +13  1018.8  -2.6  757  292           
12 08.10.12 тихо ()   >10 км    9/0 средняя 
[Ac trans]
+6.6 +1.1 68 +7  1018.9  0.2  757  298           
15 08.10.12 050 (СВ) >10 км    8/0 средняя, верхняя 
[Ac As|Ci fib]
+4.4 -1.7 64 +5  1019.2  0.3  757  300           
18 08.10.12 050 (СВ) >10 км    1/0 средняя 
[Ac lent]
+3 -2.8 66 +4  1019.1  -0.1  757  302           
00 09.10.12 090 (В) >10 км    1/0 верхняя 
[Ci fib]
+5 -2.2 60 +5  1020.6  0.6  758  300  +0.5         
03 09.10.12 110 (В) >10 км    3/0 средняя 
[Ac trans]
+13.1 -1.6 36 +13  1018.9  -1.4  757  291           
06 09.10.12 140 (ЮВ) >10 км    5/0 средняя, верхняя 
[Ac trans|Ci fib]
+16.2 +0.5 34 +17  1017.3  -1.6  756  287           
12 09.10.12 110 (В) >10 км    10/0 средняя, верхняя 
[Ac und|Ci fib]
+10.1 +0.6 52 +10  1017.5  756  294           
15 09.10.12 070 (В) >10 км    10/0 средняя 
[Ac As]
+8.9 +1.7 61 +10  1016.5  -1  755  294           
18 09.10.12 090 (В) >10 км    10/0 средняя 
[Ac As]
+8 +2 66 +9  1015.3  -1.2  754  295           
21 09.10.12 180 (Ю) >10 км    10/10 1350 м 
[Sc]
+7.4 +1.8 68 +7  1014.7  -0.6  754  295  +5.1        сухая 
00 10.10.12 110 (В) 4000 м  слаб. дождь  10/3 600 м средняя 
[Frnb|Ac As]
+6.6 +5 90 +6  1014.8  0.1  754  296           
06 10.10.12 180 (Ю) >10 км  слаб. дождь  10/9 1000 м средняя 
[Sc|Ac As]
+14.8 +5.6 54 +15  1010.8  -2  751  286           
12 10.10.12 110 (В) 10 км  слаб. дождь  10/10 600 м 
[Ns]
+10.2 +9.6 96 +11  1011.5  752  290           
18 10.10.12 160 (Ю) 10 км  слаб. дождь  10/10 300 м 
[Frnb|Ns]
+5 +4.8 99 +6  1011.2  -0.4  751  297           
00 11.10.12 360 (С) 4000 м  дождь  10/10 300 м 
[Frnb|Ns]
+4.7 +4.5 99 +4  1011.4  0.2  751  297           
Время (UTC), дата Ветер
(°,м/с) 
Видим.   Явления Облачность Т
(°С)
Тd
(°С)
f(%) Тe
(°С)
Pmin
(гПа)
dP
(гПа)
Po
(мм)
O2
(г/м3)
Тmin Tmax R s Состояние
почвы